AO-07 1 07530U 74089B 18305.19691294 -.00000027 00000-0 10998-3 0 9991 2 07530 101.7076 270.5540 0012483 70.1568 0.7908 12.53635073 11761 UO-11 1 14781U 84021B 18305.16930575 .00000029 00000-0 97857-5 0 9991 2 14781 97.6361 335.4435 0008419 3.9639 356.1641 14.83040382864742 LO-19 1 20442U 90005G 18305.07610353 .00000015 00000-0 21653-4 0 9995 2 20442 98.6215 242.7884 0012841 104.8430 255.4177 14.32908485503492 HUBBLE 1 20580U 90037B 18305.72805556 .00000459 00000-0 17114-4 0 9995 2 20580 28.4698 285.8311 0002728 174.8759 195.6002 15.09122413366266 MET-2/21 1 22782U 93055A 18305.25451987 -.00000012 00000-0 -24066-4 0 9998 2 22782 82.5489 345.1556 0023571 101.9296 328.4507 13.83812911271134 AO-27 1 22825U 93061C 18305.56752809 .00000009 00000-0 21377-4 0 9990 2 22825 98.8796 284.2826 0007625 311.6759 48.3769 14.30043151309205 IO-26 1 22826U 93061D 18305.41260913 .00000013 00000-0 23005-4 0 9990 2 22826 98.8737 284.1450 0008042 300.1547 59.8837 14.30375400309371 FO-29 1 24278U 96046B 18305.76723119 -.00000005 00000-0 27087-4 0 9995 2 24278 98.5142 125.5602 0351274 113.8594 249.9772 13.53086505 96841 NOAA-15 1 25338U 98030A 18305.51851153 .00000015 00000-0 24881-4 0 9990 2 25338 98.7642 322.0079 0010426 183.0257 177.0861 14.25881346 64597 GO-32 1 25397U 98043D 18305.43240096 -.00000009 00000-0 15408-4 0 9997 2 25397 98.6620 243.6672 0001481 29.2748 330.8514 14.23654085 55254 ISS 1 25544U 98067A 18305.78853859 .00001195 00000-0 25514-4 0 9997 2 25544 51.6430 53.0112 0004427 3.2716 134.4925 15.53885425139916 NO-44 1 26931U 01043C 18304.90035115 -.00000032 00000-0 19347-4 0 9993 2 26931 067.0515 236.6397 0006822 258.7570 101.2765 14.30521667892034 SO-50 1 27607U 02058C 18304.85329714 -.00000027 00000-0 17155-4 0 9995 2 27607 064.5567 032.2639 0077192 300.2690 059.0788 14.75492192853128 CO-55 1 27844U 03031E 18305.43556407 .00000048 00000-0 41251-4 0 9992 2 27844 98.6874 312.0704 0009391 340.6517 19.4303 14.22141322795704 CO-57 1 27848U 03031J 18305.71475547 .00000035 00000-0 35974-4 0 9993 2 27848 98.6957 312.7871 0009471 351.1511 8.9498 14.21741946795606 RS-22 1 27939U 03042A 18305.69737023 .00000114 00000-0 28950-4 0 9997 2 27939 98.0099 81.4463 0014233 74.5282 285.7498 14.66728090806970 NOAA-18 1 28654U 05018A 18305.53872465 .00000005 00000-0 27626-4 0 9998 2 28654 99.1306 343.6882 0015301 101.8405 258.4483 14.12388679693177 CO-58 1 28895U 05043F 18305.35190102 .00000130 00000-0 33795-4 0 9997 2 28895 97.9281 91.4127 0016701 0.7409 359.3816 14.63596561693941 Falconsat-3 1 30776U 07006E 18305.71635755 .00001832 00000-0 53974-4 0 9998 2 30776 35.4347 110.8503 0003016 215.3900 144.6627 15.35140880645469 CO-65 1 32785U 08021C 18305.75227322 .00000193 00000-0 26555-4 0 9993 2 32785 97.5472 311.3642 0011828 306.4942 53.5185 14.88198047569635 AAUSAT2 1 32788U 08021F 18305.01527749 .00000687 00000-0 68678-4 0 9991 2 32788 97.5131 325.7661 0010414 246.8814 113.1310 14.94495869570617 DO-64 1 32789U 08021G 18304.89558358 .00001453 00000-0 10261-3 0 9993 2 32789 097.4968 356.1538 0012414 184.5233 175.5885 15.06411190572262 CO-66 1 32791U 08021J 18305.68234105 .00000169 00000-0 22649-4 0 9992 2 32791 97.5327 316.9433 0011874 282.2422 77.7467 14.90660260569999 RS-30 1 32953U 08025A 18305.74782766 .00000020 00000-0 75656-4 0 9996 2 32953 82.4995 287.1220 0017922 270.9258 88.9768 12.43086349473861 PRISM 1 33493U 09002B 18305.72442264 .00000294 00000-0 31520-4 0 9991 2 33493 98.1191 213.0182 0013595 220.5038 139.5187 14.96390527530911 NOAA-19 1 33591U 09005A 18305.50958416 .00000056 00000-0 55799-4 0 9990 2 33591 99.1582 286.3658 0013192 304.1425 55.8494 14.12315531501557 TISAT-1 1 36799U 10035E 18304.96629850 .00000233 00000-0 29720-4 0 9996 2 36799 98.1259 84.9815 0013526 117.5084 242.7509 14.90919639450535 JUGNU 1 37839U 11058B 18305.17294233 .00000301 00000-0 18934-4 0 9996 2 37839 19.9618 286.5878 0018752 317.4655 132.9599 14.12632915364762 SRMSAT 1 37841U 11058D 18305.23957705 .00000312 00000-0 26481-4 0 9994 2 37841 19.9731 338.2136 0011747 195.2060 220.0675 14.10617950364250 AO-71 1 37854U 11061E 18305.10702464 .00000654 00000-0 41797-4 0 9994 2 37854 101.7084 80.2258 0162454 27.3282 333.6361 15.05847469382435 HRBE 1 37855U 11061F 18304.92694715 .00000601 00000-0 38522-4 0 9997 2 37855 101.7204 077.4353 0175302 037.4416 323.8858 15.04839909381745 ALMASAT-1 1 38078U 12006B 18305.82315100 .00018292 39962-5 14022-3 0 9990 2 38078 69.4349 193.7589 0216581 256.3814 173.7318 15.48075983361906 HORYU-2 1 38340U 12025D 18305.11857228 .00000150 00000-0 30044-4 0 9990 2 38340 98.3568 331.4773 0012535 131.6835 228.5448 14.75619943347309 RS-40 1 38735U 12041C 18305.47625812 .00000020 00000-0 75203-4 0 9999 2 38735 82.4813 11.0179 0017089 18.6817 341.4877 12.42577529284089 BEESAT-3 1 39135U 13015F 18305.42594143 .00000987 00000-0 59592-4 0 9998 2 39135 64.8700 58.0079 0009148 248.0682 111.9472 15.16975773305463 BEESAT-2 1 39136U 13015G 18305.77427416 .00000724 00000-0 47028-4 0 9995 2 39136 64.8705 60.0488 0010904 244.9873 115.0120 15.16428650305456 ZACUBE-1 1 39417U 13066B 18304.66062926 .00000189 00000-0 30059-4 0 9992 2 39417 097.5778 325.9448 0060425 068.6805 292.0845 14.81001482266995 TRITON-1 1 39427U 13066M 18304.92316921 .00000143 00000-0 30707-4 0 9999 2 39427 97.6530 291.8764 0113874 180.6079 179.5007 14.67734172264631 GOMX-1 1 39430U 13066Q 18305.72946146 .00000119 00000-0 31043-4 0 9997 2 39430 97.7145 272.8159 0149935 256.5403 101.9052 14.59148669263219 LO-74 1 39440U 13066AA 18305.58251893 .00000204 00000-0 35168-4 0 9997 2 39440 97.6001 312.6474 0081813 108.9830 252.0267 14.75741780266183 AO-73 1 39444U 13066AE 18304.65138555 .00000236 00000-0 35360-4 0 9996 2 39444 097.5779 327.6308 0059480 063.6899 297.0408 14.81798954265869 SPROUT 1 39770U 14029E 18305.80474432 .00000790 00000-0 94266-4 0 9998 2 39770 97.8799 45.7578 0009970 113.4618 246.7672 14.87036714240812 DUCHIFAT-1 1 40021U 14033M 18305.35724041 .00000268 00000-0 33364-4 0 9990 2 40021 97.9150 224.3105 0014416 86.1851 274.1014 14.90428143237380 NANOSATCBR1 1 40024U 14033Q 18305.33256351 .00000321 00000-0 39471-4 0 9990 2 40024 97.9070 222.2459 0013680 88.8062 271.4722 14.89673740237297 EO-79 1 40025U 14033R 18305.32560856 .00000253 00000-0 33048-4 0 9996 2 40025 97.9017 220.4093 0013896 93.3785 266.9022 14.88802248237192 DTUSAT-2 1 40030U 14033W 18305.32700073 .00000220 00000-0 29775-4 0 9995 2 40030 97.8955 218.9225 0013366 89.0345 271.2403 14.88403778237134 EO-80 1 40032U 14033Y 18305.72676698 .00000226 00000-0 30434-4 0 9996 2 40032 97.8961 219.3226 0013299 88.4950 271.7790 14.88343370237189 ANTELSAT 1 40034U 14033AA 18304.72258835 .00000185 00000-0 34755-4 0 9990 2 40034 097.7894 176.2172 0059966 117.4041 243.3286 14.73990818234801 VELOX-1 1 40057U 14034E 18305.85605403 .00000278 00000-0 46533-4 0 9998 2 40057 98.2153 59.3790 0009854 243.1675 116.8517 14.77518690233974 DAURIA DX 1 1 40071U 14037C 18305.89209347 .00000125 00000-0 23499-4 0 9995 2 40071 98.3956 83.5631 0007404 233.8363 126.2186 14.81203733233380 UKUBE-1 1 40074U 14037F 18305.84968975 .00000180 00000-0 28895-4 0 9998 2 40074 98.4071 90.2361 0003657 229.7450 130.3444 14.83902030233712 HODOYOSHI-1 1 40299U 14070B 18305.84887337 .00000480 00000-0 23263-4 0 9993 2 40299 97.3696 25.1409 0014453 123.0678 14.9950 15.23083106221430 CHUBUSAT-1 1 40300U 14070C 18305.79992731 .00000609 00000-0 29769-4 0 9995 2 40300 97.3512 20.4871 0020157 136.3508 6.4949 15.21771515221203 QSAT-EOS 1 40301U 14070D 18305.79237793 .00001451 00000-0 60110-4 0 9997 2 40301 97.3485 22.3655 0027393 124.8844 349.7929 15.25197296221391 FIREBIRD FU3 1 40377U 15003B 18305.79978937 .00001160 00000-0 50550-4 0 9993 2 40377 99.0840 234.8264 0130547 132.4078 228.8285 15.17761645207194 FIREBIRD FU4 1 40378U 15003C 18305.78788651 .00001176 00000-0 51163-4 0 9993 2 40378 99.0843 234.8767 0130764 132.3349 228.9045 15.17769082207195 GRIFEX 1 40379U 15003D 18305.76148629 .00000766 00000-0 37374-4 0 9999 2 40379 99.0843 230.2730 0137851 147.1165 213.8734 15.14736601206926 NO-84 1 40654U 15025D 18305.10793775 .00009244 00000-0 14094-3 0 04454 2 40654 054.9873 136.7674 0154175 098.3882 263.4659 15.42912671076963 NO-83 1 40655U 15025E 18305.31541131 .00029555 00000-0 25449-3 0 05257 2 40655 054.9733 061.5233 0094010 141.8694 218.9061 15.63438230077680 DEORBITSAIL 1 40719U 15032E 18305.21339850 .00000328 00000-0 54257-4 0 9990 2 40719 97.9283 196.3817 0016008 331.0105 29.0214 14.76550945178396 NUDT-PHONESAT 1 40900U 15049B 18305.83758484 .00001609 00000-0 73773-4 0 9993 2 40900 97.4418 312.5534 0011482 267.8327 215.1998 15.21867175172842 XW-2A 1 40903U 15049E 18305.74858090 .00001388 00000-0 35689-4 0 9998 2 40903 97.3697 341.9053 0012208 252.9676 199.8373 15.41005512174987 XW-2C 1 40906U 15049H 18305.74952439 .00000414 00000-0 25415-4 0 9998 2 40906 97.4637 306.7640 0013299 274.2981 139.7941 15.15373948172325 XW-2D 1 40907U 15049J 18305.76545317 .00000375 00000-0 23273-4 0 9990 2 40907 97.4612 306.4636 0012642 271.3905 206.8234 15.15538219172332 LILACSAT-2 1 40908U 15049K 18305.86993576 .00000553 00000-0 34342-4 0 9993 2 40908 97.4729 305.7406 0014376 275.7586 168.6700 15.13624259172193 XW-2E 1 40909U 15049L 18305.70438903 .00000654 00000-0 36147-4 0 9992 2 40909 97.4590 308.6888 0012140 269.3545 179.4333 15.17304318172464 XW-2F 1 40910U 15049M 18305.86595302 .00000946 00000-0 51450-4 0 9996 2 40910 97.4612 308.1273 0013164 265.4348 213.8912 15.16823808172329 XW-2B 1 40911U 15049N 18305.78947080 .00000430 00000-0 26188-4 0 9990 2 40911 97.4646 307.0729 0012463 271.9757 212.9380 15.15478092172237 DCBB 1 40912U 15049P 18305.77311186 .00000781 00000-0 40460-4 0 9990 2 40912 97.4518 311.1917 0013578 249.4630 196.9546 15.19075121172559 TW-1C 1 40926U 15051B 18305.90581223 .00007202 00000-0 12411-3 0 9993 2 40926 97.1700 347.6856 0011346 130.7200 355.1610 15.51287164174647 TW-1A 1 40928U 15051D 18305.78296762 .00001993 00000-0 52888-4 0 9996 2 40928 97.1729 337.0117 0011618 174.2357 275.9678 15.39412974173941 IO-86 1 40931U 15052B 18305.51119754 .00000532 00000-0 -14964-4 0 9999 2 40931 6.0029 250.8617 0012134 153.5558 206.5710 14.76587412167334 LQSat 1 40958U 15057A 18305.85485673 .00000001 00000-0 79496-5 0 9998 2 40958 97.9275 15.8753 0016862 255.0364 104.8967 14.73054050165112 AO-85 1 40967U 15058D 18305.15435822 -.00000028 00000-0 15616-4 0 04924 2 40967 064.7744 135.4087 0213778 272.5034 085.1615 14.75806518073864 ATHENOXAT-1 1 41168U 15077C 18305.68795008 .00001813 00000-0 61794-4 0 9994 2 41168 14.9823 93.7023 0011852 150.1646 309.5548 15.13098284159238 ChubuSat-2 1 41338U 16012B 18305.66044738 .00000281 00000-0 15215-4 0 9993 2 41338 31.0020 160.1743 0013812 353.9182 6.1284 15.00047744148494 ChubuSat-3 1 41339U 16012C 18305.72379575 .00000335 00000-0 19374-4 0 9991 2 41339 31.0126 158.1758 0013620 2.1646 357.9049 15.00231012148499 Horyu-4 1 41340U 16012D 18305.63913438 .00000407 00000-0 24333-4 0 9996 2 41340 31.0039 152.2332 0013962 15.6893 344.4173 15.01093739148569 OUFTI-1 1 41458U 16025C 18305.74331980 .00001704 00000-0 91288-4 0 9992 2 41458 98.1217 15.8709 0169086 46.6566 314.8599 15.05103542138136 e-st@r-II 1 41459U 16025D 18305.77622365 .00000914 00000-0 51181-4 0 9996 2 41459 98.1230 15.6889 0171109 47.4396 314.1103 15.04802605138115 AAUSAT4 1 41460U 16025E 18305.74939194 .00001490 00000-0 79707-4 0 9990 2 41460 98.1148 16.3985 0160990 42.1971 319.1514 15.06397524138197 LO-87 1 41557U 16033B 18305.81237644 .00000873 00000-0 35616-4 0 9990 2 41557 97.4316 29.5825 0013736 31.0146 329.1901 15.27055571135169 NuSat2 1 41558U 16033C 18305.79692217 .00000912 00000-0 35541-4 0 9990 2 41558 97.4337 29.9014 0013979 35.7195 324.4977 15.28496941135163 Lapan A3 1 41603U 16040E 18305.77167084 .00000168 00000-0 11047-4 0 9994 2 41603 97.3950 4.6699 0015071 116.3358 7.9721 15.19626436130973 Swayam 1 41607U 16040J 18305.42464593 .00001081 00000-0 49382-4 0 9993 2 41607 97.3979 6.4161 0015241 114.6787 245.6038 15.22631100130989 Pratham 1 41783U 16059A 18305.13515851 .00000036 00000-0 16392-4 0 9994 2 41783 98.1018 4.3667 0034100 27.7099 332.5911 14.62952132111989 AlSat 1N 1 41789U 16059G 18305.72873926 .00000088 00000-0 25850-4 0 9991 2 41789 98.1039 6.4572 0028793 17.6040 342.6143 14.64191049112143 ScatSat 1 41790U 16059H 18305.20801276 -.00000003 00000-0 10308-4 0 9995 2 41790 98.2436 350.3947 0018991 34.5033 325.7390 14.50878399111053 TY-1 1 41844U 16066D 18305.87471622 .00001245 00000-0 54803-4 0 9990 2 41844 97.4071 311.0552 0013537 273.6946 171.1591 15.23653894109847 Pegasus-1 1 41846U 16066F 18305.66926516 .00000160 00000-0 35106-4 0 9996 2 41846 98.7424 336.8758 0367773 198.6746 160.0646 14.37429123103657 CAS-2T 1 41847U 16066G 18305.19429150 .00000040 00000-0 16795-4 0 9997 2 41847 98.7379 336.8854 0365883 197.2314 161.6180 14.37932472104017 TO-89 1 41932U 98067KU 18305.57226620 .00081257 13587-4 26491-3 0 9992 2 41932 51.6284 346.8854 0006434 23.6267 336.5033 15.90739422102512 AOBA-V3LOX3 1 41935U 98067KX 18305.47522705 .06673673 12387-4 58971-3 0 9997 2 41935 51.6243 332.8723 0002264 27.6675 118.1989 16.38373561102788 EO-88 1 42017U 17008BX 18304.87201906 .00001146 00000-0 49021-4 0 9991 2 42017 097.4337 009.0376 0004756 254.7711 105.3001 15.24845544094895 HAVELSAT 1 42700U 98067LH 18305.60267216 .00047276 00000-0 23444-3 0 9996 2 42700 51.6296 7.5181 0004955 34.7918 325.3408 15.81487923 83689 SOMP2 1 42701U 98067LJ 18305.77414235 .00043280 00000-0 23632-3 0 9990 2 42701 51.6349 9.4782 0004779 26.8196 333.3052 15.79421547 83660 PHOENIX 1 42706U 98067LP 18305.79199290 .00026644 00000-0 17222-3 0 9991 2 42706 51.6321 11.8759 0002922 359.5446 0.5550 15.75885585 83554 X-CubeSat 1 42707U 98067LQ 18305.61936776 .00058420 00000-0 26266-3 0 9996 2 42707 51.6304 6.0309 0004651 9.8224 350.2869 15.83500166 83605 qbee 1 42708U 98067LR 18305.62019948 .00049026 00000-0 24724-3 0 9990 2 42708 51.6307 8.4024 0003527 12.3216 347.7871 15.81114958 83534 ZA-AeroSat 1 42713U 98067LU 18305.62930465 .00028022 00000-0 19331-3 0 9993 2 42713 51.6347 16.7884 0003494 352.8614 7.2334 15.74348727 83130 UPSat 1 42716U 98067LX 18305.56951638 .00407377 87600-4 57188-3 0 9995 2 42716 51.6240 353.4951 0009227 27.2662 332.8833 16.05134468 83565 SpaceCube 1 42717U 98067LY 18305.65878029 .00049080 00000-0 24922-3 0 9996 2 42717 51.6263 8.5840 0004456 29.1462 330.9788 15.80960116 82616 Hoopoe 1 42718U 98067LZ 18305.60517867 .00098090 14617-4 33519-3 0 9992 2 42718 51.6270 1.3910 0006253 21.2144 338.9120 15.89678154 82706 NJUST-1 1 42722U 98067MB 18305.80988606 .00021824 00000-0 16237-3 0 9998 2 42722 51.6386 18.5793 0005188 32.2926 65.9909 15.72730956 82190 UNSW-EC0 1 42723U 98067MC 18305.57493244 .00160188 21082-4 41899-3 0 9998 2 42723 51.6372 359.8137 0008411 24.5256 335.6150 15.94522979 82408 LO-90 1 42725U 98067ME 18305.73249047 .00036816 00000-0 21484-3 0 9999 2 42725 51.6372 12.7695 0005231 22.9337 72.7384 15.78015636 82174 nSIGHT1 1 42726U 98067MF 18305.67594174 .00009567 00000-0 10383-3 0 9996 2 42726 51.6394 33.0529 0005343 28.2918 331.8367 15.64258309 81900 SNUSAT 1B 1 42727U 98067MG 18305.66846102 .00037766 00000-0 22174-3 0 9990 2 42727 51.6336 13.2142 0006651 4.9740 355.1325 15.77854183 82129 QBITO 1 42728U 98067MH 18305.57526263 .00051222 00000-0 24999-3 0 9994 2 42728 51.6345 8.9585 0004584 19.1388 340.9786 15.81800611 82014 Aalto-2 1 42729U 98067MJ 18305.57253968 .00056897 00000-0 26298-3 0 9991 2 42729 51.6290 8.0528 0004449 19.1778 340.9392 15.82924646 82036 SUSat 1 42730U 98067MK 18305.64346402 .00040437 00000-0 22625-3 0 9990 2 42730 51.6343 11.5954 0004060 19.6887 340.4271 15.78916323 81986 i-INSPIRE II 1 42731U 98067ML 18305.60443148 .00216287 29962-4 48180-3 0 9996 2 42731 51.6324 357.6067 0008966 14.2090 345.9170 15.97355090 82215 PolyITAN-2-SAU 1 42732U 98067MM 18305.64977498 .00060086 00000-0 27554-3 0 9995 2 42732 51.6321 7.0523 0006549 0.6660 359.4350 15.83054132 82097 ExAlta-1 1 42734U 98067MP 18305.61121959 .00349534 65771-4 53182-3 0 9991 2 42734 51.6197 355.1951 0010164 24.2546 335.8942 16.03812999 82197 Aoxiang-1 1 42735U 98067MQ 18305.73657468 .00023175 00000-0 16763-3 0 9998 2 42735 51.6363 18.0577 0005801 28.2014 65.0884 15.73349403 83322 BeEagleSat 1 42736U 98067MR 18305.78646341 .00032613 00000-0 20516-3 0 9990 2 42736 51.6323 14.0518 0006058 22.3761 337.7502 15.76373677 82079 CAS-4B 1 42759U 17034B 18305.79465682 .00000058 00000-0 17154-4 0 9991 2 42759 43.0189 47.7643 0010981 254.6685 247.1686 15.09406518 76242 CAS-4A 1 42761U 17034D 18305.76805567 .00000115 00000-0 20621-4 0 9998 2 42761 43.0192 47.5945 0011499 255.2728 239.1358 15.09483379 76238 UCLSat 1 42765U 17036A 18305.35238800 .00000903 00000-0 42343-4 0 9999 2 42765 97.3850 2.8933 0010541 322.0670 37.9823 15.22178718 75572 NIUSat 1 42766U 17036B 18304.81875945 .00000718 00000-0 35755-4 0 9990 2 42766 097.3851 001.3408 0014526 309.8708 050.1249 15.20659682075297 LituanicaSAT 2 1 42768U 17036D 18304.78659246 .00001438 00000-0 66097-4 0 9995 2 42768 97.3873 1.8936 0014139 311.4117 48.5903 15.21896491 75332 Aalto 1 1 42775U 17036L 18304.75408342 .00000509 00000-0 26063-4 0 9996 2 42775 97.3842 1.5435 0012797 310.8989 49.1137 15.20967548 75253 URSA MAIOR 1 42776U 17036M 18304.79847771 .00000612 00000-0 30589-4 0 9997 2 42776 097.3848 001.6689 0012633 310.8627 049.1513 15.21066898075268 Max Valier Sat 1 42778U 17036P 18305.24373051 .00000692 00000-0 33715-4 0 9997 2 42778 97.3877 2.5800 0011218 314.6548 45.3773 15.21577685 75345 Pegasus 1 42784U 17036V 18305.40759495 .00000782 00000-0 37279-4 0 9991 2 42784 97.3853 2.8380 0011084 321.6884 38.3564 15.21971982 75386 NUDATSat 1 42787U 17036Y 18305.20234040 .00001812 00000-0 80661-4 0 9994 2 42787 97.3885 2.9874 0011870 324.3855 35.6557 15.22694005 75217 SUCHAI 1 1 42788U 17036Z 18304.81251017 .00000981 00000-0 45573-4 0 9993 2 42788 097.3856 002.4155 0010721 323.7981 036.2529 15.22292640075372 SKCUBE 1 42789U 17036AA 18304.81630223 .00000891 00000-0 41763-4 0 9991 2 42789 097.3853 002.3996 0010563 323.9406 036.1117 15.22231438075291 VZLUSAT 1 1 42790U 17036AB 18304.86161161 .00001228 00000-0 55657-4 0 9990 2 42790 097.3861 002.6566 0010171 323.7115 036.3431 15.22696930075314 VENTA 1 1 42791U 17036AC 18304.72833931 .00000842 00000-0 39572-4 0 9996 2 42791 097.3852 002.3600 0010224 325.1625 034.8941 15.22264697075277 Robusta 1B 1 42792U 17036AD 18304.83719092 .00000937 00000-0 43544-4 0 9999 2 42792 97.3853 2.5118 0010159 325.0752 34.9817 15.22389896 75319 D-SAT 1 42794U 17036AF 18305.36018198 .00000381 00000-0 38606-4 0 9995 2 42794 97.5747 354.7136 0126818 185.0140 174.9819 14.90955890 74168 BIRD-J 1 42820U 98067MU 18305.43746650 .00030644 00000-0 20373-3 0 9993 2 42820 51.6337 19.2436 0003926 343.8682 16.2192 15.75151799 75432 BIRD-G 1 42821U 98067MV 18304.66519897 .00025116 00000-0 17614-3 0 9991 2 42821 051.6338 024.5996 0003725 339.9377 020.1475 15.74031904075294 BIRD-M 1 42822U 98067MW 18305.69401529 .00031298 00000-0 21258-3 0 9995 2 42822 51.6337 18.7201 0003938 347.1528 12.9370 15.74644641 75441 BIRD-B 1 42823U 98067MX 18305.67622724 .00028777 00000-0 19381-3 0 9998 2 42823 51.6343 18.6277 0005752 356.1798 3.9157 15.74878282 75449 BIRD-N 1 42824U 98067MY 18305.47148560 .00028113 00000-0 19294-3 0 9995 2 42824 51.6343 20.2850 0005616 355.3578 4.7368 15.74455893 75398 TechnoSat 1 42829U 17042E 18305.75321324 .00000096 00000-0 15151-4 0 9995 2 42829 97.5826 202.8158 0015736 100.6781 259.6211 14.90879979 70821 TOMSK-TPU 120 1 42910U 98067MZ 18305.70337481 .00016750 00000-0 14654-3 0 9998 2 42910 51.6379 27.5294 0005785 11.2246 120.6861 15.69034815 68931 TANYUSHA 1 1 42911U 98067NA 18305.81182964 .00021367 00000-0 17083-3 0 9994 2 42911 51.6377 24.6169 0005674 8.6654 86.0117 15.71026436 68964 TANYUSHA 2 1 42912U 98067NB 18305.81685275 .00019310 00000-0 16138-3 0 9993 2 42912 51.6416 26.1501 0005097 17.5017 86.0287 15.70036604 68962 SFERA 2 1 42913U 98067NC 18305.73259671 .00171255 22449-4 45316-3 0 9994 2 42913 51.6332 5.2537 0008599 21.8334 338.3045 15.94277403 69200 TNS 0-2 1 42914U 98067ND 18305.23234364 .00016895 00000-0 14891-3 0 9999 2 42914 51.6356 30.7279 0005101 6.9067 353.1999 15.68849275 68841 QIKCOM-1 1 42983U 98067NF 18305.84449460 .00002619 00000-0 42079-4 0 9996 2 42983 51.6406 47.6918 0004182 357.8254 2.2720 15.57176786 57664 AO-91 1 43017U 17073E 18305.35926489 .00000281 00000-0 27587-4 0 9990 2 43017 97.7125 230.8128 0259001 184.7590 175.1157 14.78254544 51370 EcAMSat 1 43019U 98067NG 18305.69850502 .00004262 00000-0 61232-4 0 9991 2 43019 51.6413 46.7313 0004709 331.2925 28.7808 15.58499678139983 PICSAT 1 43132U 18004X 18305.24689821 .00000941 00000-0 43102-4 0 9991 2 43132 97.5190 8.2048 0009361 348.4735 11.6286 15.22981407 44574 AO-92 1 43137U 18004AC 18305.42863226 .00000722 00000-0 33755-4 0 9999 2 43137 97.5185 8.4095 0008969 350.1729 9.9330 15.22990654 44599 TianYi 2 1 43155U 18008A 18305.86993560 .00000927 00000-0 59482-4 0 9998 2 43155 97.5129 17.9379 0018787 36.1376 55.1842 15.10777888 43279 Zhou Enlai 1 43156U 18008B 18305.91004441 .00000297 00000-0 21984-4 0 9992 2 43156 97.5172 17.9123 0015920 33.8853 76.9158 15.10248881 43261 TianYi 6 1 43158U 18008D 18305.77388891 .00000434 00000-0 30612-4 0 9993 2 43158 97.5101 17.5038 0014912 30.3356 119.1179 15.09925758 43217 S-Net G 1 43186U 18014G 18305.69588370 .00000703 00000-0 66836-4 0 9992 2 43186 97.7164 212.3315 0012468 56.8831 303.3585 14.96525724 40889 S-Net H 1 43187U 18014H 18305.69572459 .00000709 00000-0 67382-4 0 9997 2 43187 97.7162 212.3253 0012460 56.8459 303.3956 14.96526643 40880 S-Net J 1 43188U 18014J 18305.76244355 .00000708 00000-0 67320-4 0 9998 2 43188 97.7165 212.4001 0012459 56.7496 303.4917 14.96527347 40895 S-Net K 1 43189U 18014K 18305.69578792 .00000706 00000-0 67105-4 0 9995 2 43189 97.7162 212.3239 0012461 56.8348 303.4067 14.96526139 39437 FMN 1 1 43192U 18015A 18305.41548467 .00001658 00000-0 72529-4 0 9999 2 43192 97.3727 71.6714 0017735 24.0978 336.1084 15.23336633 41404 Shaonian Xing 1 43199U 18015H 18305.78388448 .00001277 00000-0 55276-4 0 9994 2 43199 97.3515 71.5996 0018685 35.0255 325.2207 15.24083412 41492 1KUNS-PF 1 43466U 98067NP 18305.71271900 .00011543 00000-0 15292-3 0 9993 2 43466 51.6404 49.8110 0000607 322.7718 37.3232 15.58780066 27129 UBAKUSAT 1 43467U 98067NQ 18305.75157227 .00008193 00000-0 11425-3 0 9994 2 43467 51.6396 50.0730 0002461 290.6137 69.4591 15.57869309 27132 Irazu 1 43468U 98067NR 18305.74001235 .00013467 00000-0 17261-3 0 9995 2 43468 51.6399 49.2437 0000571 320.3186 39.7765 15.59494836127129 EnduroSat One 1 43551U 98067NZ 18305.44025348 .00008844 00000-0 12721-3 0 9995 2 43551 51.6394 53.2309 0006502 6.7688 353.3391 15.56898045 17295 EQUISat 1 43552U 98067PA 18305.76877151 .00008350 00000-0 12162-3 0 9999 2 43552 51.6398 51.6767 0006786 9.1214 350.9900 15.56641654 17309 UiTMSat 1 1 43589U 98067PD 18304.78302111 .00008513 00000-0 12574-3 0 9997 2 43589 51.6394 57.0893 0006115 13.8938 346.2221 15.56232050 12884 Maya 1 1 43590U 98067PE 18304.78154224 .00008497 00000-0 12539-3 0 9991 2 43590 51.6394 57.0799 0006196 14.6725 345.4446 15.56258997 12814 Bhutan 1 1 43591U 98067PF 18305.74267980 .00008297 00000-0 12233-3 0 9992 2 43591 51.6397 52.2492 0006356 19.2094 340.9136 15.56318085 12960 SiriusSat 1 1 43595U 98067PG 18305.18895959 .00008194 00000-0 12305-3 0 9993 2 43595 51.6397 55.2966 0003698 329.8698 30.2081 15.55838996 12054 SiriusSat 2 1 43596U 98067PH 18304.87479893 .00007807 00000-0 11824-3 0 9999 2 43596 051.6406 056.9562 0004327 331.5960 028.4795 15.55683383012002 Tanusha-3 1 43597U 98067PJ 18305.18954024 .00010311 00000-0 15224-3 0 9991 2 43597 51.6383 55.2936 0003905 345.1016 14.9860 15.55978634 12052 SurfSat 1 43614U 18070B 18305.67881728 .00002239 00000-0 62922-4 0 9999 2 43614 93.0289 268.9932 0019315 102.8303 257.5107 15.36417251 7230 CP-7 DAVE 1 43615U 18070C 18305.67857605 .00002102 00000-0 59074-4 0 9990 2 43615 93.0289 268.9939 0019467 103.3609 256.9812 15.36419516 7233 ELFIN-B 1 43616U 18070D 18305.61115561 -.00000006 00000-0 00000 0 0 9995 2 43616 93.0282 268.9421 0020045 108.3672 251.9864 15.36520186 7229 ELFIN-A 1 43617U 18070E 18305.67539180 -.00000006 00000-0 00000 0 0 9999 2 43617 93.0307 269.0073 0020100 107.1034 253.2494 15.36559535 7239 STARS-Me Mother 1 43640U 98067PQ 18305.74932688 .00005858 00000-0 93128-4 0 9994 2 43640 51.6402 53.0427 0005718 324.0627 35.9978 15.54880768 4066 CubeBel 1 1 43666U 18083E 18305.72097134 .00000525 00000-0 29931-4 0 9995 2 43666 97.5403 326.5808 0013609 261.7353 205.3625 15.17090421 567 Ten-Koh 1 43677U 18084G 18305.03791745 .00000015 00000-0 73939-5 0 9993 2 43677 97.8354 55.5576 0015152 324.8963 35.1191 14.90086717 415 /EX
